Regional Weather Roundup
Issued by NWS Jackson, KY

Home | Current Version | Previous Version | Text Only | Print | Product List | Glossary Off
Versions: 1 2 3 4 5 6 7 8 9 10 11 12 13 14 15 16 17 18 19 20 21 22 23 24 25 26 27 28 29 30 31 32 33 34 35 36 37 38 39 40 41 42 43 44 45 46 47 48 49 50

000
ASUS43 KJKL 180610
RWRJKL

EAST KENTUCKY HOURLY WEATHER ROUNDUP
NATIONAL WEATHER SERVICE JACKSON KY
200 AM EDT THU SEP 18 2014

NOTE: "FAIR" INDICATES FEW OR NO CLOUDS BELOW 12,000 FEET WITH
NO SIGNIFICANT WEATHER AND/OR OBSTRUCTIONS TO VISIBILITY.

* THESE REPORTS ARE NOT UNDER NWS QUALITY CONTROL AND MAY NOT
  REPORT WEATHER SUCH AS PRECIPITATION AND FOG.

KYZ079-080-083-085-087-088-110-112-115-119-120-180700
...EASTERN KENTUCKY...

CITY           SKY/WX    TMP DP  RH WIND       PRES   REMARKS
JACKSON        PTCLDY    56  54  93 CALM      30.01R
6HR MIN TEMP:  56; 6HR MAX TEMP:  63;

LONDON         PTCLDY    58  53  84 N3        30.00S
6HR MIN TEMP:  57; 6HR MAX TEMP:  66;

MONTICELLO*    MOCLDY    58  58 100 CALM      30.02R
6HR MIN TEMP:  55; 6HR MAX TEMP:  62;

WILLIAMSBURG*  PTCLDY    54  54 100 CALM      30.01R
MIDDLESBORO*   CLEAR     54  54  98 CALM      30.01R
6HR MIN TEMP:  54; 6HR MAX TEMP:  63;

HARLAN APT*    CLOUDY    55  55 100 MISG      30.01R VSB 1/2
HAZARD APT*    FOG       54  54 100 CALM      30.01R VSB 1/4
BLACK MTN*       N/A     54  52  94 SW5         N/A
PIKEVILLE APT* CLEAR     55  55 100 CALM      30.00R FOG
BIG SANDY*     FOG       53  53  99 CALM      30.00S VSB 1
6HR MIN TEMP:  53; 6HR MAX TEMP:  61;

MOREHEAD APT*  MOCLDY    54  52  94 CALM      30.03S
$$

KYZ035-036-041-042-044-050-067-078-099-180700
...CENTRAL KENTUCKY...

CITY           SKY/WX    TMP DP  RH WIND       PRES   REMARKS
MT STERLING*   PTCLDY    52  52 100 N3        30.03S
FLEMING/MASON* MOCLDY    54  50  87 N3        30.03S
DANVILLE*      MOCLDY    54  52  94 N3        30.03R
RICHMOND*      CLOUDY    54  52  94 CALM      30.01S
LEXINGTON      CLOUDY    56  52  86 CALM      30.02S
6HR MIN TEMP:  56; 6HR MAX TEMP:  64;

FRANKFORT      CLOUDY    54  52  93 NW3       30.01S
6HR MIN TEMP:  53; 6HR MAX TEMP:  64;

$$

KYZ091>093-OHZ055-061-077-WVZ005-015-034-035-042-180700
...SOUTHERN OHIO/WEST VIRGINIA...

CITY           SKY/WX    TMP DP  RH WIND       PRES   REMARKS
COVINGTON      CLEAR     54  48  80 CALM      30.02S
COLUMBUS       PTCLDY    53  47  79 CALM      30.01S
DAYTON         CLEAR     50  46  86 NW5       30.04R
WILMINGTON     CLEAR     46  44  93 CALM      30.02S FOG
HUNTINGTON     CLEAR     55  54  96 CALM      29.99S FOG
CHARLESTON     CLOUDY    58  58 100 CALM      29.98R FOG
PINEVILLE*     MOCLDY    57  57 100 MISG      30.04S FOG
BECKLEY        MOCLDY    56  54  93 CALM      30.01S
BLUEFIELD      CLEAR     58  54  86 N3        30.02S
$$

VAZ002-007-008-TNZ017-027-036-066-071-180700
...SOUTHWEST VIRGINIA/EAST TENNESSEE...

CITY           SKY/WX    TMP DP  RH WIND       PRES   REMARKS
WISE*          CLEAR     54  54 100 CALM      30.02S
JONESVILLE*    CLEAR     55  55 100 CALM      30.01R
ABINGDON*      CLEAR     56  56  99 CALM      29.99F FOG
BRISTOL        CLEAR     54  52  93 CALM      29.97F FOG
KNOXVILLE      CLOUDY    60  57  89 CALM      29.97R
OAK RIDGE      CLOUDY    62  57  83 CALM      29.99S
CROSSVILLE     CLOUDY    59  54  83 W3        30.03R
NASHVILLE      CLOUDY    64  58  80 CALM      29.99F
$$

...KEY TO REMARKS...
VSB - VISIBILITY IN MILES
WCI - WIND CHILL INDEX
HX  - HEAT INDEX

$$



USA.gov is the U.S. government's official web portal to all federal, state and local government web resources and services.